SILO ALERT LOG


Silo ID Alert Type Alert Message Silo Type Points Depth (mm) Strength Temperature (°C) Humidity (%) Height (mm) Volume (㎥) Weight (t) Flag Time
DJHNR03 Temperature 온도센서 상태 이상 호퍼 0 15500 0 -999 -999 -119 0 0 31 2024-01-10 18:39:24.000
DJSSD12 Temperature 온도센서 상태 이상 호퍼 0 11350 0 -999 -999 -120 0 0 31 2024-01-10 18:39:24.000
DJHNR12 Temperature 온도센서 측정값이 0도 미만 호퍼 0 10500 0 -0.8 81.6 -120 0 0 31 2024-01-10 18:39:23.000
DJHNR12 Humidity 습도센서 측정값이 80% 초과 호퍼 0 10500 0 -0.8 81.6 -120 0 0 31 2024-01-10 18:39:23.000
DJSAD01 Humidity 습도센서 측정값이 80% 초과 489 1519 7270 1.6 88.2 7260 300.54 190.001 0 2024-01-10 17:39:40.000
DJSAD07 Humidity 습도센서 측정값이 80% 초과 202 1530 1955 5 84.7 6049 860.839 544.222 11 2024-01-10 17:39:39.000
DJSAD03 Humidity 습도센서 측정값이 80% 초과 445 1656 6103 3.1 84.5 7123 294.883 186.425 0 2024-01-10 17:39:39.000
DJSAD02 Humidity 습도센서 측정값이 80% 초과 381 1138 4289 2.6 87.4 7641 316.313 199.973 11 2024-01-10 17:39:38.000
DJSAD08 Humidity 습도센서 측정값이 80% 초과 7 3635 3878 9.3 83.8 3944 561.249 354.821 12 2024-01-10 17:39:38.000
DJSSD04 Temperature 온도센서 상태 이상 0 8200 0 -999 -999 -120 -16.702 0 31 2024-01-10 17:39:33.000
DJDJD04 Humidity 습도센서 측정값이 80% 초과 279 4202 4407 5.3 80.8 3477 421.283 266.335 11 2024-01-10 17:39:33.000
DJSSD05 Temperature 온도센서 측정값이 0도 미만 841 2551 4877 -45.4 43.5 5528 769.438 486.439 0 2024-01-10 17:39:33.000
DJSSD01 Humidity 습도센서 측정값이 80% 초과 793 2561 4661 6.1 82 5518 768.047 485.559 0 2024-01-10 17:39:33.000
DJSAD12 Humidity 습도센서 측정값이 80% 초과 0 7700 0 3.3 86.3 -120 -17.075 0 31 2024-01-10 17:39:33.000
DJHNR11 Temperature 온도센서 측정값이 0도 미만 호퍼 231 3242 1057 -1.1 74.7 7137 100.012 63.227 11 2024-01-10 17:39:32.000
DJSSD09 Temperature 온도센서 측정값이 0도 미만 114 2883 3047 -45.4 0 4796 667.625 422.073 11 2024-01-10 17:39:31.000
DJHNR01 Humidity 습도센서 측정값이 80% 초과 호퍼 471 4307 5026 5.2 99.9 11072 472.835 298.926 13 2024-01-10 17:39:31.000
DJSAD17 Humidity 습도센서 측정값이 80% 초과 445 3129 4832 4.3 80.1 4450 443.143 280.155 0 2024-01-10 17:39:30.000
DJSAD18 Humidity 습도센서 측정값이 80% 초과 117 1408 5816 5.1 80.8 6171 614.523 388.501 11 2024-01-10 17:39:30.000
DJSSD12 Temperature 온도센서 상태 이상 호퍼 0 11350 0 -999 -999 -120 0 0 31 2024-01-10 17:39:24.000

[첫 페이지] [10015] [10016] [10017] [10018] 10019 [10020] [10021] [10022] [10023] [마지막 페이지]